QPF
0.00 0.00 0.00 0.00 0.00 0.00 0.00 0.00 0.00 0.00 0.00 0.00 0.00 0.00 0.00 0.00 0.00 0.00 0.00 0.00 0.00 0.00 0.00 0.00 0.00 0.00 0.00 0.00 0.00 0.00 0.00 0.00 0.01 0.00 0.00 0.00 0.00 0.00 0.01 0.06 0.04 0.05 0.05 0.02
0.00 0.00 0.00 0.00 0.00 0.00 0.00 0.00 0.00 0.00 0.00 0.00 0.00 0.00 0.00 0.00 0.00 0.00 0.00 0.00 0.00 0.00 0.00 0.00 0.00 0.00 0.00 0.00 0.00 0.00 0.00 0.00 0.00 0.00 0.00 0.00 0.00 0.00 0.02 0.04 0.05 0.07 0.05 0.01
0.00 0.00 0.00 0.00 0.00 0.00 0.00 0.00 0.00 0.00 0.00 0.00 0.00 0.00 0.00 0.00 0.00 0.00 0.00 0.00 0.00 0.00 0.00 0.00 0.00 0.00 0.00 0.00 0.00 0.00 0.00 0.00 0.00 0.00 0.00 0.00 0.00 0.00 0.01 0.10 0.09 0.05 0.01 0.00
0.00 0.00 0.00 0.00 0.00 0.00 0.00 0.00 0.00 0.00 0.00 0.00 0.00 0.00 0.00 0.00 0.00 0.00 0.00 0.00 0.00 0.00 0.00 0.00 0.00 0.00 0.00 0.00 0.00 0.00 0.00 0.00 0.00 0.00 0.00 0.00 0.00 0.00 0.03 0.05 0.03 0.01 0.00 0.00
0.00 0.00 0.00 0.00 0.00 0.00 0.00 0.00 0.00 0.00 0.00 0.00 0.00 0.00 0.00 0.00 0.00 0.00 0.00 0.00 0.00 0.00 0.00 0.00 0.00 0.00 0.00 0.00 0.00 0.00 0.00 0.00 0.00 0.00 0.00 0.00 0.00 0.01 0.04 0.03 0.03 0.01 0.01 0.00
0.00 0.00 0.00 0.00 0.00 0.00 0.00 0.00 0.00 0.00 0.00 0.00 0.00 0.00 0.00 0.00 0.00 0.00 0.00 0.00 0.00 0.00 0.00 0.00 0.00 0.00 0.00 0.00 0.00 0.00 0.00 0.00 0.01 0.00 0.00 0.00 0.01 0.03 0.03 0.03 0.05 0.04 0.02 0.00
0.00 0.00 0.00 0.00 0.00 0.00 0.00 0.00 0.00 0.00 0.00 0.00 0.00 0.00 0.00 0.00 0.00 0.00 0.00 0.00 0.00 0.00 0.00 0.00 0.00 0.00 0.00 0.00 0.00 0.00 0.00 0.00 0.00 0.00 0.03 0.04 0.02 0.02 0.03 0.02 0.02 0.02 0.03 0.02
0.00 0.00 0.00 0.00 0.00 0.00 0.00 0.00 0.00 0.00 0.00 0.00 0.00 0.00 0.00 0.00 0.00 0.00 0.00 0.00 0.00 0.00 0.00 0.00 0.00 0.00 0.00 0.00 0.00 0.00 0.00 0.00 0.00 0.00 0.01 0.02 0.01 0.01 0.04 0.03 0.03 0.02 0.02 0.01
0.00 0.00 0.00 0.00 0.00 0.00 0.00 0.00 0.00 0.00 0.00 0.00 0.00 0.00 0.00 0.00 0.00 0.00 0.00 0.00 0.00 0.00 0.00 0.00 0.00 0.00 0.00 0.00 0.00 0.00 0.00 0.00 0.00 0.00 0.01 0.03 0.03 0.01 0.01 0.03 0.03 0.03 0.02 0.01
0.00 0.00 0.00 0.00 0.00 0.00 0.00 0.00 0.00 0.00 0.00 0.00 0.00 0.00 0.00 0.00 0.00 0.00 0.00 0.00 0.00 0.00 0.00 0.00 0.00 0.00 0.00 0.00 0.00 0.00 0.00 0.00 0.00 0.00 0.01 0.04 0.06 0.07 0.06 0.05 0.05 0.05 0.03 0.01
0.00 0.00 0.00 0.00 0.00 0.00 0.00 0.00 0.00 0.00 0.00 0.00 0.00 0.00 0.00 0.00 0.00 0.00 0.00 0.00 0.00 0.00 0.00 0.00 0.00 0.00 0.00 0.00 0.00 0.00 0.00 0.00 0.00 0.00 0.01 0.03 0.04 0.03 0.05 0.07 0.06 0.07 0.04 0.01
0.00 0.00 0.00 0.00 0.00 0.00 0.00 0.00 0.00 0.00 0.00 0.00 0.00 0.00 0.00 0.00 0.00 0.00 0.00 0.00 0.00 0.00 0.00 0.00 0.00 0.00 0.00 0.00 0.00 0.00 0.00 0.00 0.00 0.01 0.02 0.04 0.04 0.04 0.04 0.07 0.06 0.05 0.03 0.04
0.00 0.00 0.00 0.00 0.00 0.00 0.00 0.00 0.00 0.00 0.00 0.00 0.00 0.00 0.00 0.00 0.00 0.00 0.00 0.00 0.00 0.00 0.00 0.00 0.00 0.00 0.00 0.00 0.00 0.00 0.00 0.00 0.00 0.02 0.02 0.04 0.06 0.03 0.02 0.02 0.01 0.05 0.20 0.30
0.00 0.00 0.00 0.00 0.00 0.00 0.00 0.00 0.00 0.00 0.00 0.00 0.00 0.00 0.00 0.00 0.00 0.00 0.00 0.00 0.00 0.00 0.00 0.00 0.00 0.00 0.00 0.00 0.00 0.00 0.00 0.00 0.00 0.02 0.01 0.02 0.03 0.03 0.03 0.03 0.12 0.26 0.28 0.15
0.00 0.00 0.00 0.00 0.00 0.00 0.00 0.00 0.00 0.00 0.00 0.00 0.00 0.00 0.00 0.00 0.00 0.00 0.00 0.00 0.00 0.00 0.00 0.00 0.00 0.00 0.00 0.00 0.00 0.00 0.00 0.00 0.01 0.01 0.02 0.01 0.01 0.00 0.00 0.00 0.01 0.01 0.03 0.02
0.00 0.00 0.00 0.00 0.00 0.00 0.00 0.00 0.00 0.00 0.00 0.00 0.00 0.00 0.00 0.00 0.00 0.00 0.00 0.00 0.00 0.00 0.00 0.00 0.00 0.00 0.00 0.00 0.02 0.03 0.04 0.04 0.03 0.02 0.01 0.00 0.00 0.00 0.00 0.00 0.00 0.00 0.00 0.00
0.00 0.00 0.00 0.00 0.00 0.00 0.00 0.00 0.00 0.00 0.00 0.00 0.00 0.00 0.00 0.00 0.00 0.00 0.00 0.00 0.00 0.00 0.00 0.00 0.00 0.00 0.00 0.00 0.00 0.00 0.01 0.01 0.00 0.00 0.00 0.00 0.00 0.00 0.00 0.00 0.00 0.00 0.00 0.01
0.00 0.00 0.00 0.00 0.00 0.00 0.00 0.00 0.00 0.00 0.00 0.00 0.00 0.00 0.00 0.00 0.00 0.00 0.00 0.00 0.00 0.00 0.00 0.00 0.00 0.00 0.00 0.00 0.00 0.00 0.00 0.00 0.00 0.00 0.00 0.00 0.00 0.00 0.00 0.00 0.01 0.00 0.00 0.00
0.00 0.00 0.00 0.00 0.00 0.00 0.00 0.00 0.00 0.00 0.00 0.00 0.00 0.00 0.00 0.00 0.00 0.00 0.00 0.00 0.00 0.00 0.00 0.00 0.00 0.00 0.00 0.00 0.00 0.00 0.00 0.00 0.00 0.00 0.00 0.00 0.00 0.00 0.00 0.00 0.00 0.00 0.00 0.00
0.00 0.00 0.00 0.00 0.00 0.00 0.00 0.00 0.00 0.00 0.00 0.00 0.00 0.00 0.00 0.00 0.00 0.00 0.00 0.00 0.00 0.00 0.00 0.00 0.00 0.00 0.00 0.00 0.00 0.00 0.00 0.00 0.00 0.00 0.00 0.00 0.00 0.00 0.00 0.00 0.00 0.00 0.00 0.00
0.00 0.00 0.00 0.00 0.00 0.00 0.00 0.00 0.00 0.00 0.00 0.00 0.00 0.00 0.00 0.00 0.00 0.00 0.00 0.00 0.00 0.00 0.00 0.00 0.00 0.00 0.00 0.00 0.00 0.00 0.00 0.00 0.00 0.00 0.00 0.00 0.00 0.00 0.00 0.00 0.00 0.00 0.00 0.00
0.00 0.00 0.00 0.00 0.00 0.00 0.00 0.00 0.00 0.00 0.00 0.00 0.00 0.00 0.00 0.00 0.00 0.00 0.00 0.00 0.00 0.00 0.00 0.00 0.00 0.00 0.00 0.00 0.00 0.00 0.00 0.00 0.00 0.00 0.00 0.00 0.00 0.00 0.00 0.00 0.00 0.00 0.00 0.00
0.00 0.00 0.00 0.00 0.00 0.00 0.00 0.00 0.00 0.00 0.00 0.00 0.00 0.00 0.00 0.00 0.00 0.00 0.00 0.00 0.00 0.00 0.00 0.00 0.00 0.00 0.00 0.00 0.00 0.00 0.00 0.00 0.00 0.00 0.00 0.00 0.00 0.00 0.00 0.00 0.00 0.00 0.00 0.00
0.00 0.00 0.00 0.00 0.00 0.00 0.00 0.00 0.00 0.00 0.00 0.00 0.00 0.00 0.00 0.00 0.00 0.00 0.00 0.00 0.00 0.00 0.00 0.00 0.00 0.00 0.00 0.00 0.00 0.00 0.00 0.00 0.00 0.00 0.00 0.00 0.00 0.00 0.00 0.00 0.00 0.00 0.00 0.00
0.00 0.00 0.00 0.00 0.00 0.00 0.00 0.00 0.00 0.00 0.00 0.00 0.00 0.00 0.00 0.00 0.00 0.00 0.00 0.00 0.00 0.00 0.00 0.00 0.00 0.00 0.00 0.00 0.00 0.00 0.00 0.00 0.00 0.00 0.00 0.00 0.00 0.00 0.00 0.00 0.00 0.00 0.00 0.00
0.00 0.00 0.00 0.00 0.00 0.00 0.00 0.00 0.00 0.00 0.00 0.00 0.00 0.00 0.00 0.00 0.00 0.00 0.00 0.00 0.00 0.00 0.00 0.00 0.00 0.00 0.00 0.00 0.00 0.00 0.00 0.00 0.00 0.00 0.00 0.00 0.00 0.00 0.00 0.00 0.00 0.00 0.00 0.00
MSLP
1009.85 1009.33 1008.56 1008.07 1008.36 1008.27 1007.85 1007.86 1007.58 1007.53 1007.91 1007.94 1007.18 1007.19 1007.25 1008.56 1009.25 1009.72 1010.52 1011.32 1012.04 1012.79 1013.03 1014.07 1014.65 1014.90 1015.35 1015.96 1016.44 1017.00 1017.51 1017.87 1018.43 1018.68 1018.91 1019.27 1019.59 1019.98 1020.51 1021.14 1021.50 1021.84 1022.25 1022.81
1009.51 1008.54 1008.15 1008.63 1008.73 1008.77 1008.41 1008.03 1007.61 1007.61 1007.82 1007.81 1006.90 1006.70 1007.07 1007.92 1008.69 1008.78 1009.39 1010.26 1011.06 1011.70 1012.50 1013.23 1013.79 1014.35 1014.81 1015.22 1015.80 1016.35 1016.75 1017.27 1017.79 1018.00 1018.56 1018.95 1019.25 1019.46 1019.97 1020.87 1021.22 1021.80 1022.14 1022.59
1008.18 1008.11 1008.55 1008.74 1008.65 1008.54 1008.26 1008.08 1007.84 1007.76 1007.59 1007.28 1007.20 1006.30 1006.60 1007.28 1007.87 1008.18 1008.56 1009.17 1009.87 1010.29 1011.20 1012.12 1012.88 1013.46 1014.11 1014.48 1015.03 1015.59 1016.03 1016.56 1017.31 1017.67 1018.17 1018.53 1018.77 1019.22 1019.82 1020.75 1021.49 1021.67 1022.04 1022.23
1008.09 1007.96 1008.62 1008.63 1008.34 1008.34 1007.85 1008.12 1008.26 1007.99 1007.77 1006.54 1007.22 1005.41 1005.77 1006.21 1006.76 1007.30 1007.66 1008.13 1008.59 1009.35 1010.13 1010.81 1011.77 1012.47 1013.15 1013.87 1014.51 1015.12 1015.60 1016.14 1016.84 1017.33 1017.54 1017.97 1018.10 1018.39 1019.08 1020.26 1020.77 1021.47 1021.87 1022.20
1007.61 1007.91 1008.25 1008.14 1007.87 1008.25 1007.92 1008.53 1008.40 1008.18 1007.72 1007.31 1006.82 1006.00 1004.74 1005.66 1005.36 1005.58 1006.41 1006.99 1007.57 1008.13 1008.90 1009.48 1010.26 1011.28 1012.34 1013.22 1013.85 1014.58 1015.09 1015.68 1016.21 1016.76 1017.12 1017.54 1017.81 1017.96 1018.56 1019.81 1020.27 1020.97 1021.65 1021.98
1007.06 1008.01 1007.95 1007.60 1008.08 1008.22 1008.52 1008.56 1008.55 1008.42 1007.95 1007.11 1006.62 1006.25 1004.24 1004.18 1004.63 1004.87 1005.16 1005.73 1006.44 1007.14 1007.67 1008.32 1009.21 1010.17 1010.98 1012.15 1013.10 1013.78 1014.38 1014.95 1015.58 1016.34 1016.83 1017.06 1017.33 1017.92 1018.94 1019.53 1020.02 1020.88 1021.22 1021.80
1007.02 1007.21 1007.59 1007.91 1007.77 1008.42 1008.34 1008.04 1007.61 1007.90 1007.54 1006.89 1007.07 1006.31 1004.77 1004.57 1004.77 1004.92 1004.98 1005.37 1005.71 1006.01 1006.80 1007.40 1008.07 1008.99 1009.85 1010.78 1012.01 1012.78 1013.39 1013.80 1014.66 1015.58 1016.22 1016.77 1017.19 1017.71 1018.54 1018.97 1019.44 1019.89 1020.56 1021.08
1005.92 1006.37 1006.93 1007.20 1007.10 1006.99 1007.51 1007.47 1007.13 1007.08 1007.24 1007.02 1007.40 1005.70 1004.26 1004.63 1004.74 1004.86 1005.13 1005.24 1005.46 1005.56 1005.89 1006.45 1007.20 1007.93 1008.94 1009.94 1011.18 1011.95 1012.41 1012.90 1013.76 1014.94 1015.51 1016.22 1016.82 1017.22 1017.89 1018.37 1018.91 1019.28 1019.89 1020.11
1005.18 1005.54 1006.48 1006.99 1007.09 1007.11 1007.56 1007.55 1007.77 1007.84 1008.61 1007.78 1006.36 1005.51 1004.68 1004.60 1004.61 1004.68 1004.59 1004.72 1004.87 1005.27 1005.66 1006.02 1006.52 1007.42 1008.36 1009.31 1010.18 1010.79 1011.53 1012.28 1012.95 1014.12 1014.87 1015.77 1016.56 1017.35 1017.64 1017.92 1018.72 1019.08 1019.46 1019.72
1005.29 1005.54 1006.35 1007.04 1007.35 1007.57 1007.15 1007.23 1007.75 1007.74 1007.69 1007.05 1005.90 1005.43 1004.31 1004.26 1004.26 1004.46 1004.30 1004.39 1004.69 1005.14 1005.58 1006.01 1006.46 1007.07 1007.90 1008.70 1009.62 1010.61 1011.21 1011.66 1012.20 1013.34 1014.53 1015.26 1016.01 1016.54 1017.23 1017.88 1018.52 1018.78 1018.95 1019.27
1005.03 1005.25 1006.55 1006.94 1006.55 1006.01 1007.14 1006.86 1007.06 1007.26 1007.33 1006.87 1006.08 1004.96 1004.48 1004.14 1004.17 1004.22 1004.28 1004.56 1004.66 1004.94 1005.28 1005.75 1006.32 1006.97 1007.65 1008.42 1009.29 1010.15 1010.96 1011.28 1011.89 1012.70 1013.95 1014.82 1015.46 1016.21 1016.95 1017.58 1018.36 1018.62 1018.90 1019.64
1004.71 1005.21 1005.39 1005.76 1006.07 1006.26 1005.83 1005.69 1006.22 1006.42 1006.85 1006.95 1006.47 1005.24 1004.42 1004.16 1004.29 1004.39 1004.35 1004.63 1004.85 1005.14 1005.41 1005.76 1006.20 1006.86 1007.50 1008.22 1008.94 1009.73 1010.53 1011.09 1011.66 1012.45 1013.50 1014.81 1015.53 1016.16 1016.98 1017.68 1018.44 1019.00 1019.61 1020.45
1004.55 1004.88 1005.03 1005.45 1006.37 1006.38 1005.69 1005.66 1005.84 1006.21 1006.64 1006.08 1005.84 1004.81 1004.37 1004.20 1004.19 1004.20 1004.26 1004.38 1004.88 1005.20 1005.39 1005.87 1006.40 1006.92 1007.54 1008.22 1008.91 1009.72 1010.65 1011.37 1012.00 1013.08 1014.27 1015.58 1016.32 1016.93 1017.74 1018.53 1019.19 1019.85 1020.60 1021.04
1004.43 1004.23 1004.36 1004.15 1004.20 1004.60 1005.05 1005.15 1005.39 1005.48 1005.53 1005.34 1004.70 1004.07 1003.55 1003.47 1003.44 1003.64 1003.95 1004.33 1004.81 1005.16 1005.41 1005.75 1006.35 1006.95 1007.79 1008.64 1009.49 1010.67 1011.77 1012.58 1013.47 1014.35 1015.27 1016.29 1017.05 1017.56 1018.26 1018.95 1019.63 1020.13 1021.18 1021.62
1004.22 1003.79 1004.27 1004.23 1004.13 1004.08 1004.25 1004.18 1004.39 1004.70 1004.74 1004.42 1004.00 1003.28 1002.99 1003.12 1003.14 1003.39 1004.34 1004.91 1005.16 1005.51 1005.77 1006.11 1006.59 1007.34 1008.12 1009.04 1009.94 1010.79 1012.22 1013.27 1014.06 1014.98 1015.84 1016.55 1017.39 1018.20 1018.86 1019.48 1020.21 1020.81 1021.51 1022.30
1004.21 1003.90 1004.17 1004.32 1004.36 1004.48 1004.18 1003.90 1003.89 1004.06 1003.90 1003.67 1003.53 1002.90 1003.05 1003.27 1004.05 1004.48 1005.02 1005.46 1005.87 1006.50 1006.77 1007.00 1007.45 1008.14 1009.16 1009.98 1010.67 1011.82 1012.69 1013.97 1014.67 1015.34 1016.29 1017.16 1017.98 1018.64 1019.30 1019.95 1020.65 1021.28 1021.84 1022.18
1004.40 1004.17 1004.54 1004.30 1004.90 1004.84 1004.56 1003.68 1003.46 1003.50 1003.54 1003.25 1002.63 1002.50 1002.75 1003.27 1003.93 1004.66 1005.73 1006.34 1006.93 1007.57 1008.02 1008.35 1008.70 1009.23 1010.01 1010.74 1011.46 1012.25 1013.31 1014.07 1014.96 1015.91 1016.73 1017.59 1018.27 1019.15 1019.89 1020.44 1020.96 1021.44 1021.92 1022.32
1004.75 1004.65 1004.80 1005.13 1005.65 1004.52 1003.13 1003.36 1002.94 1002.82 1002.56 1002.36 1002.39 1002.39 1002.84 1003.48 1004.45 1005.80 1006.78 1007.13 1007.91 1008.62 1009.29 1009.71 1010.20 1010.64 1011.12 1011.67 1012.35 1013.06 1013.75 1014.59 1015.45 1016.33 1017.27 1018.10 1019.03 1019.71 1020.39 1020.86 1021.19 1021.57 1021.77 1021.94
1005.09 1005.08 1005.20 1005.30 1004.95 1003.81 1003.35 1003.59 1003.07 1002.56 1001.89 1001.70 1002.13 1002.03 1002.57 1004.35 1005.74 1006.62 1007.82 1008.30 1009.08 1009.80 1010.27 1010.65 1011.10 1011.63 1012.14 1012.63 1013.19 1013.74 1014.65 1015.60 1016.47 1017.35 1018.30 1019.06 1019.57 1019.97 1020.43 1020.78 1021.13 1021.31 1021.11 1021.28
1005.76 1005.72 1005.30 1005.48 1004.36 1003.22 1002.55 1002.30 1002.54 1002.57 1001.30 1001.21 1001.70 1001.98 1002.85 1004.88 1005.27 1005.38 1008.13 1009.46 1010.40 1010.98 1011.37 1011.66 1012.07 1012.40 1012.77 1013.37 1014.02 1014.69 1015.46 1016.30 1017.11 1018.00 1018.74 1019.32 1019.56 1020.02 1020.28 1020.30 1020.57 1021.04 1021.24 1021.45
1005.70 1005.67 1005.17 1004.85 1003.87 1002.64 1002.23 1002.45 1002.64 1002.31 1000.77 1000.94 1001.48 1002.20 1003.49 1004.64 1005.24 1006.68 1008.66 1010.05 1011.06 1011.75 1012.20 1012.42 1012.69 1013.12 1013.64 1014.15 1014.60 1015.09 1015.92 1016.69 1017.54 1018.35 1018.98 1019.49 1019.70 1020.01 1020.33 1020.64 1020.97 1021.17 1021.31 1021.59
1004.80 1004.69 1004.65 1004.66 1003.63 1002.59 1002.57 1003.01 1002.00 1000.47 1001.08 1001.18 1001.82 1002.38 1003.52 1005.25 1006.80 1008.00 1009.11 1010.30 1011.37 1012.11 1012.73 1013.01 1013.26 1013.75 1014.44 1014.91 1015.23 1015.77 1016.54 1017.39 1018.24 1018.90 1019.38 1019.78 1020.18 1020.52 1020.74 1020.87 1021.14 1021.32 1021.41 1021.66
1004.61 1003.92 1003.33 1003.03 1001.79 1001.75 1001.50 1000.84 1001.06 1001.28 1001.12 1001.79 1002.00 1002.81 1003.90 1005.86 1007.14 1008.44 1009.42 1010.37 1011.24 1012.09 1012.76 1013.34 1013.73 1014.38 1015.14 1015.62 1016.07 1016.65 1017.62 1018.23 1018.81 1019.25 1019.75 1020.32 1020.79 1021.04 1021.23 1021.23 1021.39 1021.49 1021.74 1022.04
1003.51 1003.52 1003.44 1002.61 1001.04 1001.35 1001.51 1001.50 1001.99 1001.90 1001.88 1002.23 1002.62 1003.41 1004.74 1005.92 1007.34 1008.63 1009.74 1010.69 1011.43 1012.44 1013.24 1014.14 1014.84 1015.57 1016.40 1017.13 1017.57 1018.01 1018.56 1018.98 1019.34 1019.91 1020.48 1020.92 1021.35 1021.37 1021.71 1021.76 1022.07 1022.12 1022.48 1022.71
1001.78 1002.74 1002.23 1001.47 1001.06 1001.94 1001.82 1001.71 1001.24 1002.15 1002.75 1003.06 1003.31 1003.55 1004.76 1006.10 1007.42 1008.59 1009.88 1010.90 1011.79 1012.81 1013.76 1014.51 1015.41 1016.40 1017.26 1018.00 1018.59 1019.05 1019.37 1019.68 1020.17 1020.70 1021.19 1021.52 1021.88 1022.07 1022.16 1022.52 1023.03 1023.30 1023.47 1023.93
1001.68 1001.30 1001.66 1001.07 1001.11 1001.33 1001.04 1001.63 1001.27 1002.19 1002.78 1003.42 1003.78 1004.28 1005.12 1006.25 1007.25 1008.62 1009.98 1011.20 1012.30 1013.18 1014.16 1015.25 1016.26 1017.20 1018.12 1018.78 1019.41 1019.87 1020.09 1020.25 1020.61 1021.21 1021.77 1022.31 1022.36 1022.60 1022.68 1022.86 1023.29 1024.15 1024.27 1024.44
Thickness
5661 5652 5648 5658 5658 5657 5658 5652 5649 5657 5660 5653 5660 5660 5668 5659 5654 5650 5647 5642 5638 5633 5640 5633 5630 5631 5628 5625 5622 5619 5617 5616 5614 5613 5613 5611 5608 5608 5606 5602 5599 5598 5594 5590
5652 5649 5666 5660 5656 5649 5650 5649 5651 5658 5661 5657 5664 5665 5669 5661 5656 5663 5658 5652 5646 5644 5640 5638 5638 5636 5635 5633 5629 5626 5626 5624 5621 5620 5616 5613 5611 5611 5607 5601 5599 5594 5592 5589
5654 5660 5661 5653 5650 5647 5651 5647 5650 5649 5660 5666 5658 5665 5668 5669 5667 5669 5670 5666 5661 5658 5651 5647 5644 5642 5640 5639 5636 5633 5632 5630 5625 5622 5618 5615 5613 5609 5605 5598 5591 5591 5589 5587
5656 5667 5652 5649 5649 5654 5646 5659 5653 5652 5649 5652 5660 5659 5671 5674 5669 5668 5671 5671 5670 5665 5662 5658 5652 5649 5647 5644 5641 5638 5636 5632 5627 5624 5621 5616 5615 5612 5607 5598 5595 5589 5585 5583
5652 5652 5646 5646 5653 5656 5653 5655 5653 5653 5651 5653 5657 5658 5680 5676 5676 5680 5678 5677 5677 5676 5671 5667 5663 5658 5653 5648 5643 5639 5636 5633 5629 5625 5621 5616 5612 5612 5609 5599 5596 5590 5583 5578
5663 5659 5656 5659 5655 5656 5655 5651 5650 5651 5651 5641 5655 5654 5676 5683 5681 5684 5688 5687 5685 5681 5680 5677 5673 5667 5662 5654 5647 5642 5638 5634 5630 5623 5619 5616 5612 5608 5599 5596 5593 5585 5579 5572
5651 5652 5657 5656 5650 5649 5650 5647 5637 5629 5634 5638 5651 5649 5667 5682 5683 5684 5684 5685 5686 5688 5683 5680 5676 5670 5666 5660 5652 5647 5642 5638 5632 5626 5620 5615 5610 5606 5599 5595 5592 5586 5577 5571
5641 5632 5649 5659 5656 5653 5649 5652 5640 5623 5628 5641 5642 5645 5671 5683 5686 5687 5684 5685 5684 5686 5687 5683 5679 5677 5670 5663 5654 5649 5646 5641 5636 5625 5620 5615 5611 5605 5599 5594 5589 5584 5576 5571
5644 5644 5656 5654 5657 5658 5641 5638 5654 5635 5623 5628 5652 5662 5677 5680 5677 5680 5683 5684 5684 5683 5683 5683 5682 5677 5671 5664 5658 5655 5650 5644 5640 5629 5622 5614 5607 5599 5594 5591 5582 5577 5570 5565
5650 5635 5649 5645 5649 5646 5648 5655 5631 5637 5616 5619 5647 5647 5657 5666 5670 5673 5679 5682 5683 5681 5679 5679 5678 5676 5671 5667 5661 5653 5649 5645 5640 5632 5620 5613 5606 5599 5592 5584 5576 5571 5566 5559
5656 5648 5631 5638 5638 5645 5635 5638 5642 5645 5639 5626 5624 5644 5673 5670 5672 5672 5676 5677 5681 5681 5680 5678 5676 5674 5670 5666 5660 5653 5646 5643 5637 5631 5620 5612 5605 5597 5589 5581 5571 5565 5559 5550
5656 5644 5631 5637 5648 5649 5652 5651 5647 5631 5628 5630 5624 5635 5676 5674 5669 5668 5671 5673 5676 5676 5676 5676 5674 5670 5666 5661 5657 5651 5644 5639 5633 5627 5618 5605 5598 5590 5580 5571 5561 5554 5546 5535
5650 5636 5622 5626 5630 5635 5638 5646 5647 5643 5632 5628 5615 5633 5665 5666 5664 5666 5666 5670 5670 5669 5672 5671 5667 5663 5659 5655 5650 5644 5637 5631 5626 5615 5604 5591 5582 5574 5565 5556 5547 5539 5529 5521
5644 5642 5634 5629 5640 5646 5632 5639 5641 5639 5624 5629 5633 5642 5660 5664 5665 5669 5669 5669 5666 5665 5665 5664 5661 5656 5650 5644 5637 5626 5617 5611 5604 5595 5586 5575 5567 5561 5552 5544 5536 5529 5516 5505
5638 5629 5637 5644 5648 5647 5644 5645 5643 5634 5638 5629 5640 5645 5659 5662 5665 5668 5661 5657 5657 5657 5656 5655 5652 5646 5641 5633 5624 5618 5607 5597 5590 5581 5573 5566 5556 5547 5538 5530 5521 5513 5503 5492
5634 5626 5635 5628 5639 5635 5632 5644 5643 5640 5643 5643 5642 5643 5660 5661 5655 5652 5650 5648 5646 5641 5641 5642 5640 5633 5624 5617 5611 5601 5594 5583 5575 5569 5559 5551 5541 5533 5525 5516 5506 5497 5487 5479
5619 5623 5618 5620 5623 5620 5603 5629 5639 5639 5640 5640 5634 5650 5659 5653 5651 5649 5640 5637 5633 5628 5625 5623 5621 5617 5610 5604 5598 5590 5580 5573 5565 5555 5546 5536 5529 5518 5509 5500 5490 5482 5473 5464
5608 5616 5618 5610 5591 5584 5642 5645 5649 5642 5646 5650 5647 5651 5651 5650 5646 5633 5627 5629 5621 5616 5609 5605 5601 5597 5593 5588 5582 5576 5569 5561 5552 5542 5532 5522 5510 5501 5491 5483 5476 5468 5461 5454
5610 5609 5599 5591 5603 5625 5633 5628 5634 5631 5638 5654 5643 5651 5652 5637 5625 5622 5613 5614 5608 5601 5596 5592 5587 5581 5576 5571 5566 5561 5552 5541 5532 5522 5511 5502 5494 5487 5480 5473 5465 5457 5453 5445
5592 5597 5604 5586 5597 5592 5634 5648 5646 5639 5626 5656 5647 5645 5641 5623 5621 5639 5605 5595 5587 5584 5580 5576 5571 5568 5564 5557 5550 5543 5535 5526 5517 5507 5498 5490 5485 5476 5468 5464 5455 5445 5436 5427
5576 5581 5586 5593 5595 5618 5639 5634 5637 5609 5636 5651 5647 5642 5630 5622 5627 5614 5595 5583 5575 5569 5564 5562 5559 5554 5548 5542 5538 5532 5523 5514 5504 5494 5485 5477 5471 5463 5455 5446 5437 5429 5421 5411
5580 5584 5581 5584 5583 5588 5627 5618 5623 5648 5641 5644 5637 5636 5626 5613 5599 5592 5584 5573 5564 5557 5551 5549 5545 5540 5533 5528 5524 5517 5508 5498 5488 5478 5470 5462 5453 5445 5437 5430 5421 5413 5406 5397
5569 5589 5602 5604 5616 5623 5630 5642 5641 5638 5640 5630 5631 5627 5620 5599 5591 5582 5575 5566 5559 5551 5544 5538 5534 5526 5519 5514 5508 5500 5488 5479 5471 5463 5455 5445 5435 5427 5418 5412 5404 5397 5388 5379
5579 5584 5586 5596 5626 5622 5622 5627 5621 5625 5624 5623 5622 5616 5603 5594 5584 5574 5565 5555 5548 5539 5531 5522 5515 5507 5498 5490 5484 5477 5468 5461 5454 5444 5434 5425 5415 5409 5399 5392 5383 5376 5367 5357
5591 5581 5592 5601 5616 5606 5611 5615 5624 5614 5610 5607 5608 5607 5597 5587 5575 5566 5555 5545 5537 5527 5517 5510 5501 5489 5480 5471 5462 5455 5449 5442 5432 5422 5413 5405 5395 5387 5380 5371 5360 5351 5343 5331
5585 5592 5584 5594 5613 5608 5620 5613 5619 5609 5604 5599 5596 5589 5586 5577 5568 5557 5545 5534 5523 5515 5505 5493 5482 5472 5461 5452 5443 5436 5430 5424 5415 5405 5394 5381 5376 5367 5359 5352 5343 5327 5316 5308